Tracking 19476 objects as of 18-Jan-2019
HD Live streaming from Space Station
objects crossing your sky now

OPS 8180 (STP RADSAT)

Track OPS 8180 (STP RADSAT) now!
10-day predictions
OPS 8180 (STP RADSAT) is classified as:


NORAD ID: 6217
Int'l Code: 1972-076B
Perigee: 672.2 km
Apogee: 685.8 km
Inclination: 98.7 °
Period: 98.2 minutes
Semi major axis: 7050 km
RCS: 1.4995 m2 (large)
Launch date: October 2, 1972
Source: United States (US)
Launch site: AIR FORCE WESTERN TEST RANGE (AFWTR)
aabbcc
Your satellite tracking list
Your tracking list is empty




NASA's NSSDC Master Catalog

Two Line Element Set (TLE):
1  6217U 72076B   19017.07094996  .00000048  00000-0  18324-4 0  9994
2  6217  98.6601 184.8864 0009642 194.6091 165.4834 14.66621517462347
Source of the keplerian elements: AFSPC